User: anonymous
Location: Brno
(49.2000°N, 16.6330°E)
Time: 23:31:10
(UTC+02:00)
Language:

NOSS 3-4 (A) - Orbit

View from above orbital plane
View from above orbital plane
View from above satellite
View from above satellite

Ground track
Ground track

The orbit data is extracted from the following two-line orbital elements,

1 31701U 07027A   14111.03193040 0.00000000  00000-0  00000-0 0    09
2 31701  63.4030 141.9162 0101000  41.8823 318.1177 13.40640971    05
Epoch (UTC): 21 April 2014 00:45:58
Eccentricity: 0.0101000
inclination: 63.4030°
perigee height: 1031 km
apogee height: 1182 km
right ascension of ascending node: 141.9162°
argument of perigee: 41.8823°
revolutions per day: 13.40640971
mean anomaly at epoch: 318.1177°
orbit number at epoch: 0

The dashed part of the orbit path shows where the satellite is in the earth's shadow,  

DLR